Weather History for KBMG - September, 2012

Change the Weather History Date:

Tuesday, September 25, 2012

  Actual Average Record
Temperature  
Mean Temperature 63 °F 62 °F  
Max Temperature 71 °F 74 °F 87 °F (1999)
Min Temperature 54 °F 49 °F 37 °F (1997)
Degree Days  
Heating Degree Days 2 5  
Month to date heating degree days 93 48  
Since 1 July heating degree days 93 55  
Cooling Degree Days 0 2  
Month to date cooling degree days 87 90  
Year to date cooling degree days 1294 907  
Growing Degree Days 12 (Base 50)    
Moisture  
Dew Point 56 °F    
Average Humidity 72    
Maximum Humidity 97    
Minimum Humidity 47    
Precipitation  
Precipitation 0.50 in 0.12 in 2.54 in (2000)
Month to date precipitation 6.53 2.71  
Year to date precipitation 22.83 35.90  
Sea Level Pressure  
Sea Level Pressure 29.97 in    
Wind  
Wind Speed 9 mph (SSW)    
Max Wind Speed 21 mph    
Max Gust Speed 32 mph    
Visibility 8 miles    
Events Rain , Thunderstorm    
T = Trace of Precipitation, MM = Missing Value Source: NWS Daily Summary

Daily Weather History Graph

Daily Weather History Graph

Search for Another Location

Airport or City:

Trip Planner

Search our weather history database for the weather conditions in past years. The results will help you decide how hot, cold, wet, or windy it might be!

Date:

Astronomy

Sep. 25, 2012 Rise Set
Actual Time 7:37 AM EDT 7:37 PM EDT
Civil Twilight 7:10 AM EDT 8:04 PM EDT
Nautical Twilight 6:39 AM EDT 8:35 PM EDT
Astronomical Twilight 6:07 AM EDT 9:07 PM EDT
Moon 5:00 PM EDT (9/25) 3:00 AM EDT (9/25)
Length of Visible Light 12h 53m
Length of Day
12h 00m
Waxing Gibbous, 80% of the Moon is Illuminated
Sep 25
Waxing Gibbous
Sep 29
Full
Oct 8
Last Quarter
Oct 15
New
Oct 21
First Quarter

Hourly Weather History & Observations

Time (EDT) Temp. Dew Point Humidity Pressure Visibility Wind Dir Wind Speed Gust Speed Precip Events Conditions
12:53 AM 59.0 °F 39.0 °F 48% 30.03 in 10.0 mi SSW 10.4 mph - N/A   Mostly Cloudy
1:53 AM 57.9 °F 42.1 °F 56% 30.02 in 10.0 mi South 3.5 mph - N/A   Overcast
2:53 AM 57.0 °F 43.0 °F 59% 30.01 in 10.0 mi South 5.8 mph - N/A   Mostly Cloudy
3:53 AM 59.0 °F 43.0 °F 55% 29.99 in 10.0 mi South 5.8 mph - N/A   Clear
4:53 AM 59.0 °F 43.0 °F 55% 29.96 in 10.0 mi South 6.9 mph - N/A   Clear
5:53 AM 55.9 °F 44.1 °F 64% 29.96 in 10.0 mi SSE 3.5 mph - N/A   Clear
6:53 AM 54.0 °F 46.0 °F 75% 29.99 in 10.0 mi South 3.5 mph - N/A   Clear
7:53 AM 55.9 °F 48.0 °F 75% 29.98 in 10.0 mi South 6.9 mph - 0.00 in Rain Light Rain
8:32 AM 55.4 °F 51.8 °F 88% 29.98 in 10.0 mi South 12.7 mph 17.3 mph 0.02 in Rain , Thunderstorm Light Rain
8:40 AM 55.4 °F 51.8 °F 88% 30.00 in 10.0 mi SW 9.2 mph - 0.03 in Rain Light Rain
8:53 AM 54.0 °F 51.1 °F 90% 30.01 in 7.0 mi SW 10.4 mph - 0.05 in Rain Light Rain
9:53 AM 55.0 °F 54.0 °F 96% 30.02 in 6.0 mi SW 11.5 mph - 0.11 in Rain Light Rain
10:53 AM 57.9 °F 57.0 °F 97% 29.99 in 8.0 mi SSW 8.1 mph 19.6 mph 0.01 in   Mostly Cloudy
11:08 AM 59.0 °F 57.2 °F 94% 30.02 in 6.0 mi SW 13.8 mph 18.4 mph N/A   Overcast
11:53 AM 60.1 °F 59.0 °F 96% 29.97 in 8.0 mi SSW 9.2 mph - N/A   Overcast
12:30 PM 62.6 °F 59.0 °F 88% 29.98 in 10.0 mi SW 11.5 mph - N/A   Mostly Cloudy
12:39 PM 62.6 °F 59.0 °F 88% 29.97 in 10.0 mi SSW 11.5 mph 18.4 mph N/A   Mostly Cloudy
12:53 PM 63.0 °F 60.1 °F 90% 29.96 in 10.0 mi SSW 9.2 mph 19.6 mph N/A   Mostly Cloudy
1:10 PM 64.4 °F 60.8 °F 88% 29.97 in 10.0 mi SSW 13.8 mph 19.6 mph N/A   Scattered Clouds
1:35 PM 64.4 °F 59.0 °F 83% 29.96 in 10.0 mi South 12.7 mph 21.9 mph N/A   Mostly Cloudy
1:51 PM 64.4 °F 60.8 °F 88% 29.96 in 10.0 mi South 12.7 mph - N/A   Scattered Clouds
1:53 PM 64.9 °F 60.1 °F 84% 29.95 in 10.0 mi SSW 12.7 mph - N/A   Scattered Clouds
2:21 PM 66.2 °F 60.8 °F 83% 29.95 in 10.0 mi SSW 11.5 mph - N/A   Mostly Cloudy
3:13 PM 69.8 °F 60.8 °F 73% 29.94 in 10.0 mi SSW 12.7 mph 23.0 mph N/A   Partly Cloudy
3:53 PM 71.1 °F 61.0 °F 70% 29.92 in 10.0 mi SSW 9.2 mph - N/A Thunderstorm Partly Cloudy
4:37 PM 66.2 °F 62.6 °F 88% 29.97 in 1.8 mi West 5.8 mph - 0.08 in Rain , Thunderstorm Heavy Rain
4:44 PM 66.2 °F 62.6 °F 88% 29.96 in 5.0 mi SW 5.8 mph - 0.10 in Rain , Thunderstorm Light Rain
4:53 PM 66.0 °F 63.0 °F 90% 29.96 in 5.0 mi SW 6.9 mph - 0.13 in Rain , Thunderstorm Thunderstorms and Rain
5:02 PM 66.2 °F 62.6 °F 88% 29.97 in 2.5 mi SSW 9.2 mph - 0.04 in Rain , Thunderstorm Rain
5:09 PM 66.2 °F 62.6 °F 88% 29.97 in 3.0 mi South 9.2 mph - 0.06 in Rain , Thunderstorm Rain
5:39 PM 66.2 °F 62.6 °F 88% 29.95 in 5.0 mi South 5.8 mph - 0.08 in Rain Light Rain
5:53 PM 66.0 °F 63.0 °F 90% 29.92 in 5.0 mi South 9.2 mph - 0.09 in Rain Light Rain
6:53 PM 66.0 °F 63.0 °F 90% 29.90 in 7.0 mi South 10.4 mph 17.3 mph 0.02 in Rain Light Rain
7:53 PM 66.9 °F 63.0 °F 87% 29.92 in 10.0 mi South 9.2 mph - 0.00 in   Clear
8:53 PM 66.9 °F 63.0 °F 87% 29.91 in 10.0 mi South 8.1 mph - 0.00 in   Mostly Cloudy
9:53 PM 66.9 °F 63.0 °F 87% 29.91 in 10.0 mi SSE 9.2 mph - N/A   Clear
10:53 PM 66.0 °F 63.0 °F 90% 29.92 in 10.0 mi SSW 6.9 mph - 0.01 in Rain Light Rain
11:53 PM 64.9 °F 60.1 °F 84% 29.97 in 9.0 mi WSW 20.7 mph 32.2 mph 0.06 in Rain Light Rain